TimeEST,TemperatureF,Dew PointF,Humidity,Sea Level PressureIn,VisibilityMPH,Wind Direction,Wind SpeedMPH,Gust SpeedMPH,PrecipitationIn,Events,Conditions,WindDirDegrees,DateUTC
12:03 AM,39.2,37.4,93,30.20,2.5,Variable,5.8,-,N/A,,Overcast,0,2013-12-09 05:03:00
12:53 AM,39.0,37.0,93,30.21,2.5,East,4.6,-,N/A,,Overcast,80,2013-12-09 05:53:00
1:10 AM,39.2,37.4,93,30.18,3.0,Variable,6.9,-,N/A,,Overcast,0,2013-12-09 06:10:00
1:44 AM,39.2,37.4,93,30.16,2.5,East,8.1,-,N/A,,Overcast,100,2013-12-09 06:44:00
1:53 AM,39.0,37.0,93,30.20,2.5,Calm,Calm,-,N/A,,Overcast,0,2013-12-09 06:53:00
2:21 AM,39.2,37.4,93,30.16,3.0,Variable,4.6,-,N/A,,Overcast,0,2013-12-09 07:21:00
2:46 AM,39.2,37.4,93,30.16,2.5,Calm,Calm,-,N/A,,Overcast,0,2013-12-09 07:46:00
2:53 AM,39.0,37.9,96,30.19,2.0,ENE,4.6,-,N/A,,Overcast,60,2013-12-09 07:53:00
3:06 AM,39.2,37.4,93,30.18,1.8,NE,4.6,-,N/A,,Overcast,40,2013-12-09 08:06:00
3:13 AM,39.2,37.4,93,30.17,2.0,East,3.5,-,N/A,,Overcast,80,2013-12-09 08:13:00
3:25 AM,39.2,37.4,93,30.15,1.5,East,5.8,-,N/A,,Overcast,80,2013-12-09 08:25:00
3:38 AM,39.2,37.4,93,30.15,1.5,Variable,4.6,-,0.01,Rain,Light Rain,0,2013-12-09 08:38:00
3:53 AM,39.0,37.0,93,30.17,1.8,Variable,5.8,-,0.01,Rain,Light Rain,0,2013-12-09 08:53:00
4:13 AM,39.2,37.4,93,30.13,2.0,East,5.8,-,0.00,,Overcast,100,2013-12-09 09:13:00
4:34 AM,39.2,37.4,93,30.12,1.8,Variable,4.6,-,0.00,,Overcast,0,2013-12-09 09:34:00
4:49 AM,39.2,37.4,93,30.12,2.5,SE,4.6,-,0.00,,Overcast,130,2013-12-09 09:49:00
4:53 AM,39.0,37.9,96,30.15,2.5,SE,4.6,-,0.00,,Overcast,130,2013-12-09 09:53:00
5:46 AM,39.2,37.4,93,30.12,1.8,East,3.5,-,0.01,Rain,Light Rain,80,2013-12-09 10:46:00
5:53 AM,39.0,37.9,96,30.16,1.8,Variable,3.5,-,0.01,Rain,Light Rain,0,2013-12-09 10:53:00
6:16 AM,39.2,37.4,93,30.11,2.0,ESE,5.8,-,0.00,Rain,Light Rain,110,2013-12-09 11:16:00
6:30 AM,39.2,37.4,93,30.12,1.2,Variable,3.5,-,0.00,Rain,Light Rain,0,2013-12-09 11:30:00
6:53 AM,39.9,37.9,93,30.15,1.5,Variable,3.5,-,0.00,,Overcast,0,2013-12-09 11:53:00
7:53 AM,39.9,39.0,97,30.16,1.0,Calm,Calm,-,N/A,,Overcast,0,2013-12-09 12:53:00
8:02 AM,39.2,39.2,100,30.13,0.8,Calm,Calm,-,0.02,Rain,Light Rain,0,2013-12-09 13:02:00
8:09 AM,39.2,39.2,100,30.13,1.2,ENE,3.5,-,0.03,Rain,Rain,60,2013-12-09 13:09:00
8:24 AM,39.2,39.2,100,30.14,2.5,North,3.5,-,0.05,Rain,Light Rain,10,2013-12-09 13:24:00
8:46 AM,39.2,39.2,100,30.13,1.8,ENE,4.6,-,0.08,Rain,Rain,70,2013-12-09 13:46:00
8:53 AM,39.9,39.0,97,30.16,2.5,ENE,4.6,-,0.09,Rain,Light Rain,70,2013-12-09 13:53:00
8:58 AM,39.2,39.2,100,30.13,3.0,Calm,Calm,-,0.01,Rain,Light Rain,0,2013-12-09 13:58:00
9:28 AM,41.0,39.2,93,30.15,1.8,East,3.5,-,0.06,Rain,Rain,80,2013-12-09 14:28:00
9:53 AM,41.0,39.0,93,30.20,2.5,North,6.9,-,0.20,Rain,Rain,360,2013-12-09 14:53:00
9:55 AM,41.0,39.2,93,30.17,3.0,North,4.6,-,0.00,Rain,Light Rain,360,2013-12-09 14:55:00
10:53 AM,41.0,39.0,93,30.20,4.0,NNE,5.8,-,0.05,Rain,Light Rain,20,2013-12-09 15:53:00
10:55 AM,41.0,39.2,93,30.17,5.0,NE,5.8,-,0.00,Rain,Light Rain,40,2013-12-09 15:55:00
11:49 AM,42.8,39.2,87,30.16,2.5,NNE,4.6,-,0.04,Rain,Light Rain,20,2013-12-09 16:49:00
11:53 AM,42.1,39.9,92,30.19,2.0,NE,3.5,-,0.05,Rain,Rain,40,2013-12-09 16:53:00
12:51 PM,42.8,41.0,93,30.12,2.0,Calm,Calm,-,0.03,,Overcast,0,2013-12-09 17:51:00
12:53 PM,43.0,41.0,93,30.16,2.0,NNE,3.5,-,0.03,,Overcast,20,2013-12-09 17:53:00
1:00 PM,42.8,39.2,87,30.13,10.0,North,4.6,-,N/A,,Overcast,350,2013-12-09 18:00:00
1:22 PM,42.8,41.0,93,30.11,9.0,Calm,Calm,-,N/A,,Overcast,0,2013-12-09 18:22:00
1:33 PM,42.8,41.0,93,30.11,1.8,Calm,Calm,-,0.04,Rain,Rain,0,2013-12-09 18:33:00
1:53 PM,44.1,42.1,93,30.14,1.5,Calm,Calm,-,0.10,Rain,Light Rain,0,2013-12-09 18:53:00
2:53 PM,45.0,43.0,93,30.14,1.5,NW,3.5,-,0.04,Rain,Light Rain,310,2013-12-09 19:53:00
3:53 PM,46.0,43.0,89,30.12,4.0,Calm,Calm,-,0.03,,Overcast,0,2013-12-09 20:53:00
4:53 PM,46.9,44.1,90,30.14,9.0,Calm,Calm,-,N/A,,Overcast,0,2013-12-09 21:53:00
5:53 PM,46.9,45.0,93,30.13,10.0,NW,3.5,-,N/A,,Overcast,310,2013-12-09 22:53:00
6:00 PM,46.4,44.6,93,30.10,10.0,Calm,Calm,-,N/A,,Overcast,0,2013-12-09 23:00:00
6:09 PM,48.2,44.6,87,30.10,10.0,Calm,Calm,-,N/A,,Overcast,0,2013-12-09 23:09:00
6:53 PM,48.0,45.0,89,30.14,9.0,Calm,Calm,-,N/A,,Overcast,0,2013-12-09 23:53:00
7:00 PM,48.2,44.6,87,30.11,9.0,WNW,4.6,-,N/A,,Overcast,290,2013-12-10 00:00:00
7:10 PM,48.2,44.6,87,30.11,10.0,WNW,5.8,-,N/A,,Overcast,300,2013-12-10 00:10:00
7:28 PM,48.2,44.6,87,30.11,10.0,Calm,Calm,-,N/A,,Overcast,0,2013-12-10 00:28:00
7:53 PM,48.0,45.0,89,30.13,10.0,NW,3.5,-,N/A,,Overcast,320,2013-12-10 00:53:00
8:53 PM,48.0,45.0,89,30.12,9.0,Calm,Calm,-,N/A,,Overcast,0,2013-12-10 01:53:00
9:53 PM,48.0,46.0,93,30.09,8.0,Calm,Calm,-,N/A,,Overcast,0,2013-12-10 02:53:00
10:00 PM,48.2,46.4,93,30.06,7.0,Calm,Calm,-,N/A,,Overcast,0,2013-12-10 03:00:00
10:53 PM,48.0,46.0,93,30.07,7.0,SSE,3.5,-,N/A,,Overcast,160,2013-12-10 03:53:00
11:42 PM,48.2,46.4,93,30.02,8.0,Calm,Calm,-,N/A,,Overcast,0,2013-12-10 04:42:00
11:53 PM,48.9,46.0,90,30.04,8.0,Calm,Calm,-,N/A,,Overcast,0,2013-12-10 04:53:00